RH
11 11 10 9 9 8 7 7 7 8 8 9 9 9 9 9 9 8 9 10 10 10 9 9 9 8 8 8 8 8 8 8 9 9 10 10 9 8 8 7 7 6 7 7 7 7 8 8 7 8 8 7 8 8 7 7 7 9 13 14 14 16 15 13 14 15 15 13 14 15 15 15 14 13 13 14 15 16 16 17 17 17 18 18 19 20 20 20
11 10 10 9 9 8 8 8 8 9 9 9 9 9 9 9 9 9 10 10 10 9 9 9 8 8 8 8 8 8 9 9 10 11 10 9 9 9 8 7 7 7 8 8 7 8 8 8 8 8 8 8 8 8 9 8 8 10 15 16 15 17 15 13 14 13 13 13 13 15 15 15 14 13 13 14 15 15 17 18 18 18 18 19 19 20 20 20
10 10 10 10 10 9 10 10 10 10 10 10 10 9 9 9 9 9 10 10 10 9 9 8 8 7 8 8 8 9 9 9 11 12 10 8 9 9 7 7 8 9 9 9 8 8 9 8 8 8 8 8 8 9 9 9 9 10 14 16 15 15 14 13 14 13 13 13 13 14 14 13 13 14 15 15 15 15 17 18 18 19 19 19 19 20 20 20
11 12 12 11 11 11 11 11 11 11 11 10 9 9 9 8 9 9 10 10 9 9 8 8 8 8 9 9 9 9 9 9 12 12 9 8 8 8 8 9 9 9 10 10 9 9 9 8 8 8 8 8 8 9 9 10 10 10 13 15 14 15 15 15 14 14 14 13 13 14 13 13 14 15 15 15 15 16 17 17 18 18 18 19 19 19 20 21
13 13 13 13 12 12 12 12 11 11 10 10 9 8 9 9 10 10 10 10 9 8 8 8 8 9 10 10 10 9 10 12 13 11 9 9 8 9 9 9 8 8 9 11 10 9 9 9 8 8 8 8 9 9 10 10 10 11 11 13 15 15 15 15 14 13 13 13 13 14 14 14 14 15 15 15 16 18 17 17 18 18 18 19 19 19 20 21
15 14 13 13 12 12 12 11 11 10 10 9 9 9 9 10 10 10 10 9 8 8 9 9 10 10 11 10 10 10 11 15 14 11 11 10 9 10 9 9 9 8 10 11 11 10 10 9 9 9 9 10 11 11 11 11 11 13 13 12 14 15 14 15 14 15 15 15 15 15 16 15 15 15 15 16 17 17 17 18 18 19 19 19 20 20 21 22
15 14 14 13 12 11 11 11 10 10 9 9 9 10 10 11 11 10 10 9 9 9 9 10 10 11 11 10 11 12 13 14 14 13 12 11 10 10 9 10 9 10 12 12 12 12 11 10 10 9 10 11 11 11 12 12 13 15 15 13 13 14 14 14 15 15 15 16 16 16 17 17 16 16 16 16 17 17 18 18 18 19 19 20 20 21 21 22
16 15 15 14 12 12 11 11 10 10 10 10 10 11 11 11 11 10 9 9 9 9 10 11 11 11 11 11 11 12 13 13 12 12 12 12 11 11 11 11 11 12 14 14 13 13 12 12 11 11 12 12 12 12 13 14 15 16 15 14 14 14 14 15 15 16 15 16 16 17 17 17 17 17 17 16 17 18 18 18 19 19 20 20 21 21 22 23
18 17 16 15 14 13 12 12 11 11 11 11 11 11 12 11 11 10 9 10 10 10 11 11 12 12 12 13 12 12 14 14 12 11 12 12 13 13 14 13 14 15 16 16 14 14 14 14 13 13 13 14 13 14 14 15 16 16 15 15 15 16 16 17 17 17 17 17 18 18 19 18 18 18 19 19 19 19 19 19 20 20 21 21 22 21 22 23
19 18 18 17 16 15 14 13 13 12 12 12 12 12 12 11 11 10 10 10 10 11 11 11 12 12 13 13 14 14 17 16 13 13 12 13 14 15 16 15 16 17 17 16 15 14 15 15 15 14 14 15 15 15 15 16 17 16 16 17 17 18 18 18 19 19 19 19 20 21 21 20 20 20 21 21 21 21 21 21 21 21 22 22 22 22 23 23
20 19 19 18 17 16 16 15 14 13 13 13 13 12 12 11 11 10 10 10 11 11 12 12 13 13 14 14 14 15 17 17 16 16 15 15 14 15 16 16 17 17 16 16 16 16 15 15 15 15 16 16 16 16 16 17 17 17 17 18 18 18 18 19 19 19 19 20 20 21 21 21 21 21 22 21 21 21 21 22 22 22 23 22 22 22 22 23
20 20 19 19 18 17 17 16 15 14 13 13 12 12 12 11 10 10 11 11 11 12 12 13 13 14 14 14 14 14 17 17 17 16 16 16 15 15 16 16 16 17 16 16 17 16 16 15 15 16 17 17 17 17 17 18 17 17 17 19 20 20 19 19 19 19 19 20 20 20 21 22 22 21 21 21 21 22 22 22 22 23 23 23 22 22 22 23
19 19 19 18 18 17 17 16 16 14 14 13 12 12 11 11 10 10 11 11 11 12 13 13 13 14 14 15 15 15 17 17 16 16 16 16 16 16 16 16 16 16 17 17 17 17 16 16 16 17 18 18 18 18 18 18 17 18 18 19 21 22 22 20 20 20 20 20 21 21 23 25 24 21 21 21 21 23 23 23 23 24 24 24 22 22 22 22
19 19 18 17 17 16 16 16 16 15 14 13 13 12 11 11 11 11 11 11 12 12 13 14 14 15 15 15 16 16 17 17 17 17 16 16 16 16 16 16 17 17 17 17 18 17 17 17 17 18 18 18 18 18 19 18 18 19 19 21 23 23 25 23 20 21 21 22 22 22 25 25 24 23 22 22 22 22 23 24 24 25 26 26 25 24 23 23
18 18 18 17 16 15 14 14 15 14 14 13 13 12 12 11 11 11 11 11 12 13 14 15 15 16 16 17 17 17 18 17 17 17 17 16 16 16 16 16 17 17 17 17 18 18 18 18 18 18 19 19 19 19 22 22 20 19 20 26 26 24 28 25 21 22 23 23 23 23 26 25 23 23 23 23 23 23 24 24 25 26 27 28 27 26 26 26
20 19 18 18 17 16 14 14 13 14 14 13 13 12 11 11 11 11 11 12 12 14 15 16 17 17 17 17 17 17 17 17 17 17 17 17 16 16 16 16 16 16 17 17 17 18 18 18 18 19 18 19 21 23 26 27 26 23 22 28 29 26 28 26 22 24 23 24 24 25 26 25 24 24 24 24 24 24 24 25 26 27 28 29 28 28 28 28
24 21 19 19 18 17 16 15 13 13 13 13 13 12 12 11 11 11 12 12 13 15 16 16 18 17 17 17 17 17 17 17 17 17 17 17 17 17 17 17 16 16 16 16 17 17 18 18 19 19 19 20 22 25 29 28 28 28 24 25 29 28 28 27 26 25 24 25 25 25 26 25 25 25 25 25 24 25 25 25 26 27 28 29 29 29 29 29
27 25 23 21 20 19 18 16 15 14 13 13 13 13 12 12 12 12 13 13 14 16 16 17 18 17 15 16 16 16 16 17 17 17 17 18 18 18 18 17 17 17 16 16 17 17 18 18 20 22 22 21 21 25 28 27 27 30 28 27 29 29 29 29 29 27 26 27 26 27 26 25 25 26 25 25 25 25 25 25 25 26 28 29 29 29 29 30
30 28 26 24 22 21 19 19 18 16 15 14 14 13 13 13 13 13 14 15 16 16 16 17 17 15 15 15 15 16 16 16 17 17 18 18 18 18 18 18 18 17 17 18 18 17 18 20 22 24 24 22 21 23 25 25 26 28 29 30 29 29 29 29 29 28 28 27 28 28 26 25 24 25 25 26 26 25 25 25 24 25 26 27 28 28 29 29
29 30 29 27 26 23 22 21 20 18 18 16 15 14 14 16 17 16 16 16 15 14 14 15 15 14 16 16 16 17 17 17 18 18 18 19 19 19 19 18 18 18 18 21 21 18 18 23 25 24 22 22 21 22 22 23 24 25 26 28 29 30 30 29 30 29 28 28 29 29 27 27 25 25 25 25 26 26 26 25 24 24 25 27 28 30 30 30
29 29 29 29 28 26 24 23 22 20 19 18 17 16 17 18 19 19 19 18 15 13 13 14 15 16 15 16 16 16 17 18 18 18 19 19 19 19 20 19 20 21 21 22 22 19 19 24 25 22 21 21 22 22 22 23 23 24 26 28 29 31 31 29 30 29 28 29 31 31 30 29 27 26 26 25 26 25 25 26 25 24 25 27 29 31 31 31
32 29 28 29 28 28 26 25 24 23 21 20 19 17 20 22 21 20 21 21 18 16 16 15 15 17 17 16 17 16 17 18 19 19 19 18 19 20 19 20 22 23 23 23 23 23 23 25 23 22 22 22 23 23 23 25 25 26 30 31 32 35 33 32 31 31 30 31 33 34 33 30 28 27 26 25 25 23 23 23 23 23 25 27 29 31 31 32
39 32 29 28 28 29 28 26 25 24 23 21 20 19 22 25 24 23 22 22 20 17 17 17 16 16 18 18 18 17 17 18 19 19 19 18 19 19 19 21 22 23 23 24 25 25 26 26 23 22 23 23 23 24 24 27 29 30 31 32 35 37 35 34 34 32 32 32 33 34 33 31 27 26 26 24 24 23 22 22 22 23 24 25 27 29 30 31
46 39 32 28 29 30 29 28 27 26 25 23 22 21 23 26 27 26 23 22 22 18 15 16 16 16 17 18 18 18 17 17 17 18 18 18 18 19 19 20 21 22 23 23 24 25 25 24 22 23 25 24 25 26 26 28 31 35 34 34 35 36 34 35 35 35 35 37 35 33 35 34 30 28 26 25 25 25 24 23 23 24 24 25 27 28 29 30
59 49 38 30 29 30 30 30 28 27 26 25 25 23 24 28 29 28 25 23 24 22 18 16 17 17 17 17 18 18 18 17 16 16 16 17 17 19 19 19 20 23 22 22 24 24 23 21 21 24 25 26 26 27 29 31 33 36 37 35 33 34 34 35 37 38 41 42 39 36 40 41 35 31 28 26 27 27 27 26 24 25 25 25 26 27 30 31
69 64 52 39 33 31 33 34 29 27 27 25 25 25 27 29 31 30 27 28 27 24 22 20 19 19 17 19 20 18 19 19 17 16 16 16 17 17 19 20 19 21 22 21 24 25 23 21 23 25 27 28 27 27 31 33 35 37 37 35 35 34 36 37 38 40 45 46 41 39 44 44 35 29 27 27 27 27 27 27 26 25 25 25 26 27 29 31
73 72 66 54 43 37 36 35 31 27 26 26 24 25 29 30 31 29 29 33 30 22 23 23 20 20 19 20 20 19 20 20 19 19 17 17 18 17 20 21 19 20 20 21 26 27 24 23 25 26 28 30 29 30 33 34 36 39 38 37 38 38 40 41 41 43 47 48 46 43 45 47 39 29 26 27 28 27 26 28 28 28 28 28 29 30 31 32
79 76 74 66 56 47 42 40 35 29 29 30 26 26 29 30 31 30 31 35 31 24 25 26 21 21 22 22 21 21 21 20 21 22 20 19 19 18 20 20 20 20 19 22 27 27 25 26 28 28 28 31 32 34 35 34 36 40 40 40 41 42 44 45 45 47 49 50 51 47 45 49 45 33 29 29 28 28 27 28 30 31 32 32 33 34 34 35
88 83 79 74 68 61 55 49 42 37 35 35 31 28 31 33 31 33 36 32 27 27 28 27 26 24 24 24 23 22 22 22 23 24 22 21 21 20 20 20 20 21 21 22 26 29 30 30 30 31 31 34 37 39 40 37 36 40 42 43 45 46 46 46 47 49 52 54 53 49 47 50 46 36 33 31 28 29 28 29 31 31 33 33 34 35 35 36
96 91 87 84 77 70 65 58 50 47 46 43 38 32 33 36 32 38 45 32 22 29 30 28 29 28 27 27 26 25 25 25 25 26 25 23 22 21 20 21 21 25 28 29 30 32 32 31 31 34 34 36 39 40 41 40 40 41 46 48 49 51 50 52 52 51 57 60 52 48 47 49 51 44 37 31 29 30 29 30 31 31 33 34 34 35 35 36
97 95 93 89 83 75 69 62 56 56 58 55 51 42 38 40 38 42 45 28 19 29 32 31 31 30 29 29 29 28 27 28 27 27 27 25 24 23 23 24 25 30 36 36 35 35 33 33 35 35 35 38 41 39 39 43 43 45 50 52 52 54 55 56 56 57 65 63 52 47 46 49 54 47 36 32 31 30 30 30 31 33 34 35 36 37 36 37
96 97 95 92 90 84 74 63 60 65 67 67 68 57 45 49 50 43 34 22 21 29 32 33 34 32 31 31 31 29 29 30 28 28 29 28 28 26 25 26 27 32 38 37 38 38 37 39 41 40 38 39 42 42 44 47 49 49 52 54 54 57 61 63 63 64 67 61 51 48 50 52 51 40 33 33 32 32 32 32 32 33 34 35 37 38 38 38
93 96 96 94 93 90 81 72 71 72 71 74 78 68 57 60 56 40 28 23 27 36 36 34 34 34 33 33 34 32 31 32 31 30 30 30 31 30 28 29 28 31 37 38 39 42 45 47 46 45 44 41 42 45 46 48 49 50 50 54 58 64 72 76 72 68 66 60 52 50 54 55 49 38 34 34 33 34 35 34 34 33 33 34 36 37 38 38
95 96 96 93 91 92 90 85 80 78 79 82 82 77 74 68 50 35 29 25 29 40 42 38 38 38 37 37 36 34 34 35 33 32 33 34 36 35 33 32 31 33 38 40 42 46 50 49 45 43 43 41 41 43 45 47 49 49 49 54 60 65 72 74 70 67 66 61 54 53 57 55 47 40 36 35 35 36 36 37 36 34 34 35 36 37 38 39
96 96 96 97 95 95 96 94 89 89 91 89 84 85 84 68 46 37 33 26 30 40 42 43 43 43 43 42 40 36 37 39 36 35 38 37 36 36 33 32 31 34 39 41 44 47 48 47 44 41 41 42 44 45 47 51 53 54 57 60 61 62 62 64 66 64 62 62 59 55 55 51 44 39 37 38 37 36 37 37 37 37 36 37 38 38 38 39
95 94 95 97 95 94 98 99 95 92 93 94 93 93 85 64 47 42 36 31 36 40 44 48 48 48 49 48 46 42 40 42 41 40 41 39 38 36 34 32 32 33 34 36 43 47 48 50 48 44 44 45 46 47 48 52 57 60 62 62 61 63 63 64 68 64 61 66 62 55 52 49 44 39 36 37 38 37 39 38 37 39 39 39 40 39 38 40
97 96 94 91 89 92 98 99 97 94 95 98 98 93 83 68 56 52 46 43 45 45 46 50 51 52 53 52 52 48 45 46 46 44 45 45 42 37 35 36 35 35 34 35 41 45 47 52 52 50 50 49 48 50 51 53 59 64 64 61 62 67 68 69 72 71 71 72 64 55 52 50 46 42 36 37 39 40 41 41 40 40 41 41 41 39 39 40
94 97 96 89 88 93 99 100 98 97 98 100 99 92 84 73 63 59 57 56 58 58 53 50 50 52 54 55 55 53 50 51 50 49 50 49 45 38 37 40 39 38 38 40 45 48 49 53 58 57 56 55 53 55 57 57 60 64 65 62 65 71 72 72 75 76 78 77 68 59 54 49 45 43 39 39 41 40 40 42 42 42 43 43 42 41 40 41
92 98 94 85 86 94 100 101 100 99 99 101 99 90 79 68 60 60 64 67 69 68 61 53 51 56 57 55 55 56 54 53 53 53 52 50 46 41 40 41 41 41 41 43 48 53 54 56 61 62 60 61 60 60 64 63 61 65 67 65 68 72 73 73 74 73 75 76 70 62 56 48 43 41 40 40 40 39 39 41 43 43 44 44 43 42 42 43
90 97 92 81 84 92 97 100 101 100 99 96 90 78 68 61 57 60 68 72 73 70 63 58 58 62 63 60 59 60 59 58 56 55 53 51 48 44 43 43 44 44 45 48 50 54 58 59 62 65 66 65 63 62 63 62 62 66 69 70 72 72 74 75 73 70 71 73 71 66 57 46 41 41 40 39 40 39 39 41 43 44 45 45 45 44 44 45
85 89 83 79 86 91 96 101 100 98 98 96 86 72 65 63 61 63 66 70 74 69 64 64 64 64 65 66 65 63 64 65 62 59 56 52 48 48 46 45 46 49 51 55 56 57 61 63 65 69 68 66 66 64 63 64 64 65 66 68 69 70 74 77 74 70 69 69 69 70 60 44 39 43 41 40 41 41 41 41 43 45 46 46 46 45 46 48
88 83 71 72 86 93 97 100 97 98 98 91 79 71 70 68 66 68 68 71 76 72 67 68 68 64 63 65 67 69 71 69 65 63 60 54 51 51 50 48 48 51 53 56 57 56 62 68 69 71 70 66 67 69 68 67 66 65 66 68 69 69 70 73 73 71 72 69 66 71 66 47 39 45 46 44 43 42 42 43 43 45 46 48 48 47 48 50
89 83 69 70 81 90 99 100 97 100 95 81 75 78 79 77 73 73 73 76 78 76 73 69 67 67 66 65 68 73 73 72 69 65 61 59 57 54 54 54 53 55 55 56 58 58 65 72 73 74 74 70 69 71 70 67 67 69 70 71 71 68 67 72 75 74 75 70 67 74 71 48 39 48 51 48 45 43 44 44 44 47 47 49 50 48 49 51
83 81 78 80 80 83 96 100 96 98 92 81 83 87 84 82 81 79 77 76 75 77 78 73 68 70 70 69 72 73 73 73 71 66 63 64 62 57 58 59 59 58 56 57 60 61 67 75 78 81 82 77 75 76 73 69 69 70 70 69 68 68 72 75 75 77 75 66 67 77 68 46 43 51 51 49 47 45 46 46 46 49 49 49 51 52 51 52
83 85 86 88 86 83 88 91 91 94 91 86 89 90 88 87 85 82 80 77 76 78 79 76 73 74 74 75 76 76 75 71 68 69 69 68 65 61 62 62 61 60 57 58 61 63 67 72 74 78 80 76 70 70 72 71 71 72 71 70 71 73 76 75 75 81 75 65 69 72 60 47 48 50 49 50 51 48 48 50 50 50 51 50 52 55 55 54
89 92 91 91 92 90 86 84 90 96 94 93 92 90 92 92 85 84 87 86 83 81 79 77 76 77 78 78 78 78 76 70 69 74 74 71 69 67 66 66 64 63 62 64 67 70 75 75 72 71 72 66 59 60 66 69 70 71 70 70 74 76 77 79 81 78 72 72 72 61 54 54 50 48 51 52 54 54 54 55 54 54 54 53 53 56 57 56
91 90 88 89 94 94 90 85 88 93 92 92 92 88 88 89 86 89 94 92 88 85 83 81 79 81 80 77 77 77 73 71 73 75 73 71 73 73 71 71 71 70 70 71 72 77 82 81 76 73 70 64 57 58 66 67 65 66 66 68 71 74 78 82 78 67 69 82 72 52 58 62 47 45 53 53 55 59 59 58 57 56 58 57 56 56 58 58
92 85 79 81 90 94 92 86 85 86 88 91 92 90 90 91 92 94 92 89 88 89 90 88 83 81 79 76 77 77 74 76 76 72 70 73 76 77 76 77 78 77 77 78 77 80 84 81 77 77 74 66 59 61 67 69 66 67 68 68 69 73 76 74 68 62 72 83 66 50 61 61 44 47 55 52 54 59 57 57 57 58 61 62 60 60 60 59
93 88 80 81 88 89 86 87 86 85 85 89 93 93 94 95 94 90 87 90 93 93 95 93 82 76 77 78 79 79 76 77 74 66 67 74 79 81 82 83 83 80 82 83 82 83 83 79 77 79 78 71 64 65 71 74 72 71 72 72 70 70 69 66 66 69 77 78 62 53 62 57 46 52 57 53 56 57 55 57 59 60 64 65 65 65 63 63
95 91 86 89 93 88 83 87 94 92 87 90 95 94 93 93 91 88 89 93 93 90 92 90 78 75 81 82 83 82 75 71 69 65 68 77 81 81 81 83 83 83 84 85 84 83 82 81 82 83 83 75 66 68 77 80 78 76 76 75 69 65 66 70 74 76 77 73 63 62 68 57 46 53 57 56 58 59 57 58 59 61 64 66 68 68 67 68
97 93 89 94 98 93 86 86 92 97 95 94 93 90 89 89 85 86 90 90 87 87 89 86 78 81 88 87 86 83 74 71 73 71 73 78 80 78 78 81 83 85 86 86 87 85 84 87 86 87 88 76 63 72 85 84 85 87 79 68 62 64 70 74 74 72 71 71 69 72 71 54 44 53 58 56 59 60 59 58 59 62 64 67 70 71 69 69
96 95 91 95 98 96 93 90 90 94 98 98 92 86 87 86 82 87 95 93 89 88 88 84 82 87 94 93 88 80 75 77 81 81 80 80 79 78 79 81 83 85 87 89 90 89 89 90 87 89 92 76 65 79 89 89 96 93 71 54 55 65 73 74 72 68 68 71 73 71 62 48 48 57 58 56 61 62 60 59 60 62 65 68 70 69 68 68